THOR ABLESTAR DEB, 417

Orbit data source: Space-Track

THOR ABLESTAR DEB, 417 is space debris in LEO originally from a launch on Thu, 29 Jun 1961 UTC launched from the Air Force Eastern Test Range (AFETR). Debris objects in space refer to the collection of defunct objects orbiting the Earth. Examples of debris include non-operational satellites, rocket bodies, and fragments generated from explosions, collisions, or faulty payload assembly.

Loading next visibility...
Identifier
417, 1961-015ES
Orbit
LEO
Country
Flag of USUS
Related business
Manufacturer
Unknown
Mission
Spacecraft
Bus & Motor
Unknown
Mass
Unknown
Launch date (UTC)
1961-06-29 (65 years ago)
Launch vehicle
Unknown
Launch site
Air Force Eastern Test Range (AFETR)
Object type
Payload
Rocket body
Debris
Shape & HBR
Unknown shape, 0.1 m
Radar Cross Section
Small (<0.1 m²)

Expand to show TLE details & history
Last TLE update: 21 hours ago

TLE from 21 hours ago
0 THOR ABLESTAR DEB
1 00417U 61015ES  26126.84864380  .00000661  00000-0  33797-3 0  9998
2 00417  66.7451 317.1642 0063174 135.9255 224.6900 14.20690864331626
Epoch: 2026-05-06T20:22Z
TLE epoch observation values (Epoch: 2026-05-06T20:22:02.824Z)
Latitude
0.00003°
Longitude
146.9492°
Altitude
857.605 km
Speed
7.407 km/s
True Right ascension
21h 08m 39s
True Declination
0° 00' 00"
Sunlit
Object was in daylight at epoch
Visualization orbit readout
Latitude
Unknown
Longitude
Unknown
Altitude
Unknown
Speed
Unknown
Apparent Right ascension
Unknown
Apparent Declination
Unknown
Sunlit
N/A
Visualization observer readout
Local Sidereal Time
01:05:26
Azimuth
Unknown
Elevation
Unknown
Doppler factor
Unknown
Orbital elements
Apogee altitude
866.876 km
Perigee altitude
775.912 km
Semi-major axis
7,199.531 km
Eccentricity
0.00632
Inclination
66.7451°
RAAN
317.1642°
Arg. of periapsis
135.9255°
True anomaly
224.18374°
Mean anomaly
224.69°
Eccentric anomaly
224.43658°
Mean motion
3.55293 °/min
Orbital period
101.32 mins
BSTAR
0.00033797

Documentation

Showing up to 5 results
|